Вернуться в каталог

COSMOS 2455

АктивенНавигацияLEO
NORAD 36095·PAYLOAD·🇷🇺 Russia

Запущен Nov 20, 2009 с Plesetsk Cosmodrome

Loading…

Ближайшие Пролёты (ближайшие 24 часа)

TLE

СвежийSource: Space-Track

Эпоха: Sep 13, 2026, 11:42 UTC

1 36095U 09063A   26256.48772936 -.00000067  00000-0  59723-5 0  9993
2 36095  67.1487  38.1506 0005397 296.7223  63.3309 13.97057251857460

Отслеживайте COSMOS 2455 в реальном времени с AllMySat

Download on the App Store